Simultaneous Nadir Overpasses (SNOs) Predictions

Prediction of SNOs between AQUA and METOP-B Satellite Orbit:

Table of predicted SNOs for the next 14.0 days since TLE Epoch: 9/8/2017
Index Date (AQUA) Time (AQUA) Lat,Lon (AQUA) SZA (AQUA ) Date (METOP-B) Time (METOP-B) Lat,Lon (METOP-B) SZA (METOP-B ) Distance(km) Time Diff (sec)
1 09/11/2017 05:06:20 73.85, 97.54 69.34 09/11/2017 05:05:54 73.85, 97.61 69.35 2.23 26
2 09/11/2017 05:55:46 -73.89, -94.90 110.61 09/11/2017 05:56:35 -73.91, -94.93 110.59 2.44 49
3 09/13/2017 23:50:55 -73.24, -2.36 110.24 09/13/2017 23:49:48 -73.17, -4.87 110.24 81.22 67
4 09/14/2017 00:40:34 73.82, 164.04 70.38 09/14/2017 00:40:14 73.83, 163.97 70.40 2.24 20
5 09/14/2017 01:30:01 -73.91, -28.52 109.51 09/14/2017 01:30:55 -73.89, -28.56 109.54 2.94 54
6 09/16/2017 19:25:12 -73.44, 63.67 108.96 09/16/2017 19:24:02 -73.39, 62.04 108.95 52.10 70
7 09/16/2017 20:14:48 73.87,-129.62 71.51 09/16/2017 20:14:32 73.86,-129.56 71.50 2.11 16
8 09/16/2017 21:04:14 -73.90, 37.94 108.44 09/16/2017 21:05:13 -73.92, 37.91 108.44 1.76 59
9 09/19/2017 14:59:30 -73.65, 129.66 107.65 09/19/2017 14:58:18 -73.57, 128.84 107.71 27.50 72
10 09/19/2017 15:49:02 73.87, -63.19 72.60 09/19/2017 15:48:51 73.88, -63.09 72.60 3.05 11
11 09/19/2017 16:38:28 -73.91, 104.38 107.36 09/19/2017 16:39:32 -73.94, 104.38 107.33 3.35 64
12 09/22/2017 10:33:46 -73.77,-164.16 106.43 09/22/2017 10:32:33 -73.78,-164.24 106.42 2.62 73
13 09/22/2017 11:23:15 73.84, 3.32 73.66 09/22/2017 11:23:11 73.85, 3.24 73.66 2.37 4




NCC Satellite Simultaneous Nadir Overpasses (SNOs) Prediction Service
